Weather in Yakeshi

China     49°16′29″N   120°43′44″E
temp.,
°C
wind,
m/s
gust,
m/s
humid.,
%
clouds,
%
prec.,
mm/h
press.,
hPa
HPBL,
m
4 march, thu
thu423:00−10s2398100 0.1 101027
02:00−9nne119799 0.1 100922
05:00−9sw2396100 0.8 1009108
08:00−12wsw249798 0.9 1010160
11:00−9w5788100 0.2 1012534
14:00−10wnw7107196 0.2 1014825
17:00−15wnw5108541 0.0 1019303
20:00−20wnw498825 0.0 1025147
5 march, fri
fri523:00−24wnw239229 0.0 103020
02:00−27w229615 0.0 103419
05:00−28w229579 0.0 103819
08:00−27w229245 0.0 104146
11:00−22wnw35810 0.0 1042375
14:00−20wnw57720 0.0 1041648
17:00−23wnw35830 0.0 104291
20:00−28sw23890 0.0 104620
6 march, sat
sat623:00−29sw23860 0.0 104721
02:00−30sw22880 0.0 104621
05:00−29ssw22959 0.0 104421
08:00−25s12904 0.0 104268
11:00−16wsw367397 0.0 1036444
14:00−12sw597649 0.0 1031651
17:00−15wsw3887100 0.0 1028264
20:00−17ssw2388100 0.0 102937
7 march, sun
sun723:00−16ssw2293100 0.0 102638
02:00−15w2397100 0.6 102771
05:00−20w479976 0.1 1029117
08:00−19wsw479779 0.1 1031259
11:00−16w469399 0.1 1030371
14:00−13w4592100 0.1 1030392
17:00−14wsw2395100 0.0 103030
20:00−18ssw229770 0.0 103420
8 march, mon
mon823:00−18s229510 0.0 103320
02:00−18s12925 0.0 103120
05:00−17sw22830 0.0 102921
08:00−13sw311850 0.0 1028294
11:00−8wsw610840 0.0 1025464
14:00−6wsw598631 0.0 1023493
17:00−8wsw4991100 0.0 1023324
20:00−12sw349255 0.0 102673